TimeCST,TemperatureF,Dew PointF,Humidity,Sea Level PressureIn,VisibilityMPH,Wind Direction,Wind SpeedMPH,Gust SpeedMPH,PrecipitationIn,Events,Conditions,WindDirDegrees,DateUTC
12:15 AM,42.8,41.0,93,30.18,1.8,Calm,Calm,-,N/A,,Clear,0,2012-11-20 06:15:00
12:26 AM,42.8,41.0,93,30.18,1.8,Calm,Calm,-,N/A,,Scattered Clouds,0,2012-11-20 06:26:00
12:38 AM,42.8,41.0,93,30.17,2.0,Calm,Calm,-,N/A,,Partly Cloudy,0,2012-11-20 06:38:00
12:48 AM,42.8,41.0,93,30.17,1.5,Calm,Calm,-,N/A,,Partly Cloudy,0,2012-11-20 06:48:00
12:53 AM,42.1,41.0,96,30.16,1.8,Calm,Calm,-,N/A,,Clear,0,2012-11-20 06:53:00
1:01 AM,42.8,41.0,93,30.17,1.0,Calm,Calm,-,N/A,,Mist,0,2012-11-20 07:01:00
1:08 AM,42.8,39.2,87,30.16,0.5,Calm,Calm,-,N/A,Fog,Fog,0,2012-11-20 07:08:00
1:47 AM,41.0,39.2,93,30.16,1.2,Calm,Calm,-,N/A,,Partly Cloudy,0,2012-11-20 07:47:00
1:53 AM,41.0,39.9,96,30.16,1.8,Calm,Calm,-,N/A,,Clear,0,2012-11-20 07:53:00
2:10 AM,41.0,39.2,93,30.17,2.0,Calm,Calm,-,N/A,,Clear,0,2012-11-20 08:10:00
2:17 AM,41.0,39.2,93,30.17,1.5,Calm,Calm,-,N/A,,Clear,0,2012-11-20 08:17:00
2:30 AM,39.2,39.2,100,30.17,2.0,Calm,Calm,-,N/A,,Partly Cloudy,0,2012-11-20 08:30:00
2:34 AM,39.2,39.2,100,30.17,1.0,Calm,Calm,-,N/A,,Mist,0,2012-11-20 08:34:00
2:43 AM,41.0,39.2,93,30.17,0.8,Calm,Calm,-,N/A,,Mist,0,2012-11-20 08:43:00
2:53 AM,41.0,39.0,93,30.16,0.8,Calm,Calm,-,N/A,,Mist,0,2012-11-20 08:53:00
2:56 AM,41.0,39.2,93,30.16,1.2,Calm,Calm,-,N/A,,Scattered Clouds,0,2012-11-20 08:56:00
3:13 AM,39.2,37.4,93,30.17,2.0,Calm,Calm,-,N/A,,Clear,0,2012-11-20 09:13:00
3:40 AM,39.2,37.4,93,30.18,1.8,Calm,Calm,-,N/A,,Clear,0,2012-11-20 09:40:00
3:53 AM,39.9,37.9,93,30.17,2.0,Calm,Calm,-,N/A,,Clear,0,2012-11-20 09:53:00
4:53 AM,39.9,37.9,93,30.18,2.0,Calm,Calm,-,N/A,,Clear,0,2012-11-20 10:53:00
5:53 AM,39.0,37.0,93,30.18,2.0,Calm,Calm,-,N/A,,Clear,0,2012-11-20 11:53:00
6:53 AM,37.9,37.0,97,30.18,2.0,Calm,Calm,-,N/A,,Clear,0,2012-11-20 12:53:00
7:01 AM,37.4,37.4,100,30.19,1.5,Calm,Calm,-,N/A,,Clear,0,2012-11-20 13:01:00
7:20 AM,39.2,37.4,93,30.19,2.5,Calm,Calm,-,N/A,,Clear,0,2012-11-20 13:20:00
7:53 AM,42.1,41.0,96,30.19,2.5,Calm,Calm,-,N/A,,Clear,0,2012-11-20 13:53:00
8:02 AM,42.8,42.8,100,30.20,4.0,Calm,Calm,-,N/A,,Clear,0,2012-11-20 14:02:00
8:53 AM,48.9,45.0,86,30.20,9.0,Calm,Calm,-,N/A,,Clear,0,2012-11-20 14:53:00
9:53 AM,55.0,48.0,77,30.19,10.0,Calm,Calm,-,N/A,,Clear,0,2012-11-20 15:53:00
10:53 AM,62.1,48.0,60,30.18,10.0,Calm,Calm,-,N/A,,Clear,0,2012-11-20 16:53:00
11:53 AM,66.9,48.9,52,30.16,10.0,West,5.8,-,N/A,,Clear,280,2012-11-20 17:53:00
12:53 PM,70.0,50.0,49,30.13,10.0,NW,4.6,-,N/A,,Clear,310,2012-11-20 18:53:00
1:53 PM,73.0,52.0,48,30.10,10.0,WNW,6.9,-,N/A,,Clear,290,2012-11-20 19:53:00
2:53 PM,73.9,52.0,46,30.08,10.0,WNW,10.4,-,N/A,,Clear,300,2012-11-20 20:53:00
3:53 PM,73.0,50.0,44,30.09,10.0,WNW,5.8,-,N/A,,Clear,290,2012-11-20 21:53:00
4:53 PM,64.9,52.0,63,30.09,10.0,Calm,Calm,-,N/A,,Clear,0,2012-11-20 22:53:00
5:53 PM,55.9,50.0,80,30.12,10.0,Calm,Calm,-,N/A,,Clear,0,2012-11-20 23:53:00
6:53 PM,52.0,48.0,86,30.14,10.0,Calm,Calm,-,N/A,,Clear,0,2012-11-21 00:53:00
7:53 PM,50.0,46.9,89,30.15,9.0,Calm,Calm,-,N/A,,Clear,0,2012-11-21 01:53:00
8:53 PM,48.0,45.0,89,30.17,5.0,Calm,Calm,-,N/A,,Clear,0,2012-11-21 02:53:00
9:53 PM,46.9,45.0,93,30.18,5.0,Calm,Calm,-,N/A,,Clear,0,2012-11-21 03:53:00
10:53 PM,45.0,43.0,93,30.18,3.0,Calm,Calm,-,N/A,,Clear,0,2012-11-21 04:53:00
11:53 PM,43.0,41.0,93,30.19,4.0,Calm,Calm,-,N/A,,Clear,0,2012-11-21 05:53:00